TimeEST,TemperatureF,Dew PointF,Humidity,Sea Level PressureIn,VisibilityMPH,Wind Direction,Wind SpeedMPH,Gust SpeedMPH,PrecipitationIn,Events,Conditions,WindDirDegrees,DateUTC
12:15 AM,15.8,3.2,58,30.08,10.0,West,4.6,-,N/A,,Clear,260,2013-01-23 05:15:00
12:55 AM,15.8,1.4,53,30.08,10.0,West,6.9,-,N/A,,Clear,260,2013-01-23 05:55:00
1:15 AM,14.0,-0.4,53,30.08,10.0,WSW,3.5,-,N/A,,Clear,240,2013-01-23 06:15:00
1:35 AM,14.0,1.4,57,30.09,10.0,West,5.8,-,N/A,,Clear,260,2013-01-23 06:35:00
1:55 AM,14.0,-0.4,53,30.09,10.0,West,6.9,-,N/A,,Clear,270,2013-01-23 06:55:00
2:15 AM,14.0,-0.4,53,30.10,10.0,West,4.6,-,N/A,,Clear,260,2013-01-23 07:15:00
2:35 AM,14.0,-4.0,45,30.10,10.0,West,6.9,-,N/A,,Clear,260,2013-01-23 07:35:00
2:55 AM,14.0,-4.0,45,30.11,10.0,WSW,3.5,-,N/A,,Clear,240,2013-01-23 07:55:00
3:15 AM,12.2,-0.4,57,30.11,10.0,Calm,Calm,-,N/A,,Clear,0,2013-01-23 08:15:00
3:55 AM,12.2,3.2,67,30.10,10.0,West,5.8,-,N/A,,Clear,260,2013-01-23 08:55:00
4:15 AM,12.2,3.2,67,30.11,10.0,West,5.8,-,N/A,,Clear,260,2013-01-23 09:15:00
4:55 AM,12.2,1.4,62,30.12,10.0,West,10.4,-,N/A,,Clear,260,2013-01-23 09:55:00
5:15 AM,12.2,1.4,62,30.12,10.0,WSW,6.9,-,N/A,,Clear,250,2013-01-23 10:15:00
5:35 AM,12.2,-0.4,57,30.12,10.0,West,5.8,-,N/A,,Clear,270,2013-01-23 10:35:00
5:55 AM,12.2,-2.2,53,30.12,10.0,WSW,5.8,-,N/A,,Clear,250,2013-01-23 10:55:00
6:15 AM,12.2,-2.2,53,30.13,10.0,WSW,8.1,-,N/A,,Clear,250,2013-01-23 11:15:00
6:35 AM,12.2,-4.0,48,30.13,10.0,West,8.1,-,N/A,,Clear,260,2013-01-23 11:35:00
6:55 AM,12.2,-4.0,48,30.13,10.0,WSW,6.9,-,N/A,,Clear,250,2013-01-23 11:55:00
7:15 AM,12.2,-5.8,45,30.13,10.0,West,8.1,-,N/A,,Clear,260,2013-01-23 12:15:00
7:35 AM,12.2,-5.8,45,30.14,10.0,WSW,9.2,17.3,N/A,,Clear,250,2013-01-23 12:35:00
7:55 AM,12.2,-5.8,45,30.15,10.0,West,6.9,-,N/A,,Clear,260,2013-01-23 12:55:00
8:15 AM,12.2,-5.8,45,30.15,10.0,West,11.5,19.6,N/A,,Clear,260,2013-01-23 13:15:00
8:55 AM,14.0,-7.6,38,30.15,10.0,West,10.4,20.7,N/A,,Clear,280,2013-01-23 13:55:00
9:15 AM,14.0,-7.6,38,30.16,10.0,West,10.4,21.9,N/A,,Clear,280,2013-01-23 14:15:00
9:35 AM,14.0,-7.6,38,30.16,10.0,West,11.5,25.3,N/A,,Clear,270,2013-01-23 14:35:00
9:55 AM,14.0,-7.6,38,30.15,10.0,West,8.1,19.6,N/A,,Clear,270,2013-01-23 14:55:00
10:35 AM,15.8,-7.6,35,30.14,10.0,West,12.7,20.7,N/A,,Clear,270,2013-01-23 15:35:00
10:55 AM,17.6,-7.6,32,30.13,10.0,WNW,11.5,19.6,N/A,,Clear,290,2013-01-23 15:55:00
11:15 AM,17.6,-7.6,32,30.13,10.0,West,10.4,23.0,N/A,,Clear,270,2013-01-23 16:15:00
11:35 AM,17.6,-7.6,32,30.12,10.0,WNW,13.8,25.3,N/A,,Clear,290,2013-01-23 16:35:00
11:55 AM,17.6,-5.8,35,30.11,10.0,West,11.5,17.3,N/A,,Partly Cloudy,270,2013-01-23 16:55:00
12:15 PM,17.6,-7.6,32,30.10,10.0,WSW,15.0,25.3,N/A,,Clear,250,2013-01-23 17:15:00
12:55 PM,17.6,-5.8,35,30.08,10.0,West,10.4,18.4,N/A,,Clear,280,2013-01-23 17:55:00
1:15 PM,19.4,-7.6,30,30.08,10.0,West,8.1,17.3,N/A,,Clear,260,2013-01-23 18:15:00
1:35 PM,19.4,-5.8,33,30.08,10.0,WSW,8.1,18.4,N/A,,Clear,250,2013-01-23 18:35:00
1:55 PM,19.4,-5.8,33,30.08,10.0,West,15.0,19.6,N/A,,Clear,260,2013-01-23 18:55:00
2:15 PM,19.4,-5.8,33,30.08,10.0,WSW,10.4,19.6,N/A,,Clear,250,2013-01-23 19:15:00
2:55 PM,19.4,-7.6,30,30.09,10.0,West,12.7,17.3,N/A,,Partly Cloudy,260,2013-01-23 19:55:00
3:15 PM,19.4,-7.6,30,30.09,10.0,West,9.2,17.3,N/A,,Clear,260,2013-01-23 20:15:00
3:35 PM,19.4,-9.4,28,30.09,10.0,West,13.8,20.7,N/A,,Clear,260,2013-01-23 20:35:00
3:55 PM,17.6,-7.6,32,30.09,10.0,West,6.9,-,N/A,,Clear,280,2013-01-23 20:55:00
4:15 PM,17.6,-7.6,32,30.09,10.0,West,9.2,17.3,N/A,,Clear,270,2013-01-23 21:15:00
4:55 PM,15.8,-7.6,35,30.10,10.0,West,6.9,-,N/A,,Clear,280,2013-01-23 21:55:00
5:15 PM,15.8,-7.6,35,30.11,10.0,West,6.9,-,N/A,,Clear,270,2013-01-23 22:15:00
5:35 PM,14.0,-7.6,38,30.12,10.0,WSW,8.1,-,N/A,,Clear,250,2013-01-23 22:35:00
5:55 PM,14.0,-7.6,38,30.12,10.0,West,4.6,-,N/A,,Clear,260,2013-01-23 22:55:00
6:15 PM,14.0,-7.6,38,30.13,10.0,West,5.8,-,N/A,,Clear,260,2013-01-23 23:15:00
6:55 PM,12.2,-5.8,45,30.13,10.0,West,6.9,-,N/A,,Clear,270,2013-01-23 23:55:00
7:15 PM,12.2,-7.6,41,30.14,10.0,West,4.6,-,N/A,,Clear,280,2013-01-24 00:15:00
7:35 PM,12.2,-5.8,45,30.14,10.0,West,4.6,-,N/A,,Clear,260,2013-01-24 00:35:00
7:55 PM,12.2,-5.8,45,30.14,10.0,Calm,Calm,-,N/A,,Clear,0,2013-01-24 00:55:00
8:15 PM,12.2,-5.8,45,30.14,10.0,Calm,Calm,-,N/A,,Clear,0,2013-01-24 01:15:00
8:35 PM,10.4,-5.8,48,30.14,10.0,WSW,4.6,-,N/A,,Clear,250,2013-01-24 01:35:00
8:55 PM,12.2,-5.8,45,30.14,10.0,WSW,3.5,-,N/A,,Clear,250,2013-01-24 01:55:00
9:15 PM,12.2,-5.8,45,30.14,10.0,West,5.8,-,N/A,,Clear,260,2013-01-24 02:15:00
9:35 PM,10.4,-5.8,48,30.14,10.0,WSW,8.1,-,N/A,,Clear,250,2013-01-24 02:35:00
9:55 PM,12.2,-5.8,45,30.14,10.0,West,6.9,-,N/A,,Clear,260,2013-01-24 02:55:00
10:15 PM,10.4,-5.8,48,30.14,10.0,WSW,6.9,-,N/A,,Clear,250,2013-01-24 03:15:00
10:35 PM,10.4,-5.8,48,30.13,10.0,West,5.8,-,N/A,,Clear,260,2013-01-24 03:35:00
10:55 PM,10.4,-5.8,48,30.14,10.0,West,10.4,-,N/A,,Clear,260,2013-01-24 03:55:00
11:15 PM,10.4,-7.6,44,30.14,10.0,WSW,4.6,-,N/A,,Clear,250,2013-01-24 04:15:00
11:35 PM,10.4,-7.6,44,30.14,10.0,West,6.9,-,N/A,,Clear,270,2013-01-24 04:35:00
11:55 PM,10.4,-7.6,44,30.13,10.0,WSW,4.6,-,N/A,,Clear,250,2013-01-24 04:55:00